User: anonymous
Location: Mentone
(34.5413°N, 85.5351°W)
Time: 08:03:34
(UTC-05:00)
Language:

Centaur AC-72 - Orbit

View from above orbital plane
View from above orbital plane
View from above satellite
View from above satellite

Ground track
Ground track

The orbit data is extracted from the following two-line orbital elements,

1 21907U 92013B   14292.95662249 -.00000126  00000-0  00000+0 0  9477
2 21907 019.0692 220.2479 6945937 305.8190 324.5481 02.25607617186359
Epoch (UTC): 19 October 2014 22:57:32
Eccentricity: 0.6945937
inclination: 19.0692°
perigee height: 1121 km
apogee height: 35235 km
right ascension of ascending node: 220.2479°
argument of perigee: 305.8190°
revolutions per day: 2.25607617
mean anomaly at epoch: 324.5481°
orbit number at epoch: 18635

The dashed part of the orbit path shows where the satellite is in the earth's shadow,  

DLR